Location: Unspecified
(0.0000°N, 0.0000°E)
Time: 15:22:53
(UTC+00:00)

Envisat - Pass Details

Date: 23 September 2020
Orbit: 764 x 766 km, 98.1° (Epoch: 19 September)

Event Time Altitude Azimuth Distance (km) Brightness Sun altitude
Rises 04:55:41 0° 35° (NE) 3,216 6.7 -14.2°
Reaches altitude 10° 04:58:21 10° 48° (NE) 2,293 6.2 -13.5°
Maximum altitude 05:02:27 25° 102° (ESE) 1,496 5.5 -12.5°
Drops below altitude 10° 05:06:35 10° 157° (SSE) 2,302 5.8 -11.4°
Sets 05:09:14 0° 170° (S) 3,230 6.4 -10.8°
